Vertical_Velocity
0 -2 -1 4 -4 25 31 4 0 17 10 4 -1 -0 -9 -4 -4 3 -0 5 -1 -4 -1 0 2 -4 -1 -1 -4 -1 -5 -2 0 -16 3 3 0 -4 -2 2 -0 -1 4 -20
-1 2 0 2 12 11 19 0 -1 31 37 -5 2 4 -2 -4 7 -3 1 0 -1 -0 -2 -3 1 0 1 1 0 -6 -4 1 3 10 12 7 2 -0 -1 -1 0 -6 7 -12
1 -0 -2 -2 15 29 13 -6 -2 6 8 1 -8 -1 -1 3 -0 -0 0 -4 1 3 3 2 -3 3 3 -1 0 -2 3 0 -3 -9 1 -6 6 2 0 -1 3 -8 -10 -12
2 1 2 7 1 45 5 2 -1 -10 -2 7 2 2 -3 1 1 -1 2 5 -2 -9 -1 1 0 1 4 1 -1 0 4 -0 1 0 0 0 -1 -1 -0 2 -6 7 -14 3
7 -3 -10 15 -5 46 16 -15 -7 2 -1 3 4 2 -1 -5 5 -12 1 3 -1 0 -4 -13 -3 -6 -2 -9 5 0 -0 2 -1 -0 -0 1 1 -1 0 -0 -2 2 2 -8
2 0 1 1 12 14 6 2 8 -10 -0 3 2 -10 -6 -8 -2 2 -4 -8 -5 0 2 -3 0 -2 -4 -6 -5 -0 -2 -2 -0 -1 0 1 5 -11 -3 -2 0 1 3 -8
-2 8 15 -5 -8 -6 10 -10 -8 -4 3 -0 -12 -0 -3 -1 -6 -6 0 -0 -6 12 -1 -5 -6 -4 -1 -1 2 -3 -2 1 -0 -0 3 3 6 1 -2 -2 -2 -0 1 -2
-0 1 3 7 33 15 6 -4 -9 -9 1 -5 9 4 -2 3 6 -2 -4 3 -6 -12 -6 -4 0 2 5 4 0 2 -2 -2 -0 -1 -1 -1 11 -1 -3 -2 -10 -1 1 -1
2 9 -12 -11 12 5 8 11 2 -10 -9 -2 -3 -3 -8 -4 0 2 2 15 2 3 -2 -2 -2 -2 -3 7 9 1 1 1 -0 3 1 -2 4 4 -2 0 -3 0 -1 -1
-6 0 2 2 8 3 3 -7 -4 -8 -6 9 -6 -1 -9 -2 -0 -3 1 6 10 4 -0 -1 -1 1 -7 -2 -2 -0 3 3 -3 0 -0 -2 -3 -1 -0 10 9 0 1 0
-3 -1 -4 1 11 3 -3 6 7 -11 -4 2 -2 0 -3 2 -1 -7 9 0 4 3 -1 -3 -0 -1 -2 0 -4 -5 -7 -5 -1 4 4 -3 -3 11 4 6 -2 0 -2 -2
16 19 14 0 8 1 2 -13 0 -0 -19 5 4 -1 -2 -4 3 -34 10 2 -2 -3 -1 2 -0 1 2 -3 -0 2 5 -5 -6 -8 -8 1 -5 2 -2 -2 -1 -2 1 -3
10 6 -5 -32 -13 -6 -2 -8 -2 -15 -14 3 -7 1 2 1 4 13 -20 8 -1 1 -0 -2 1 -2 -0 -1 -3 2 2 -0 0 4 1 -1 -1 -2 -2 -2 -1 -1 -1 1
3 2 -8 -5 32 2 -3 -12 -0 -15 -5 -8 8 11 1 5 4 3 -5 -18 -4 -8 0 -1 -1 -2 2 -0 -1 -1 -4 3 -4 -3 1 3 -4 -2 3 -2 -2 -0 -0 1
-2 -3 7 14 -8 6 3 1 4 -4 -15 -4 2 20 7 11 6 -2 10 3 -5 -2 -1 -1 1 0 0 1 2 1 -3 -7 -1 -7 -6 -4 -1 3 -4 -2 -0 -1 -4 -3
5 2 3 9 5 4 -11 -16 18 3 -11 -21 -2 3 2 7 5 1 2 4 -4 -4 -3 1 0 -4 1 1 -0 -8 -3 -1 -1 -10 0 -2 -2 -3 -3 -0 -0 -5 1 1
3 4 3 4 5 8 -8 1 -2 7 -8 -16 2 2 -2 2 0 -2 -6 -1 -3 -4 -1 0 -1 2 -5 1 0 -6 -4 -3 -0 -0 2 4 -0 0 -1 -3 -4 4 0 2
4 4 1 -1 3 -10 -6 -1 2 2 -6 -4 -3 6 1 -1 1 -0 1 -1 -0 -1 1 0 0 3 2 1 -6 -1 -2 1 2 -0 -1 -1 1 -2 -3 -2 3 -0 0 -1
0 1 2 -3 -17 -9 2 1 -3 -2 -6 -4 -2 -6 2 -2 0 -1 -2 -1 -0 -2 -0 0 2 0 -2 -8 -2 -2 -3 -6 -7 -0 1 0 -1 1 -1 4 3 -2 -0 -2
0 1 -6 -5 -5 -1 -2 2 1 -5 -1 -4 -2 -1 2 0 0 2 -2 -1 -0 1 0 -2 2 -5 -9 -2 -5 0 -3 -4 0 0 5 3 2 0 2 2 -3 -2 -2 -1
-8 -7 -3 -0 -0 -1 -4 -2 -4 0 -1 -0 2 -2 -3 -4 -1 -0 0 -0 0 2 6 4 0 -1 -3 -2 0 -2 2 -0 -2 -1 4 5 -1 -2 -1 -1 -2 -2 -1 -1
-1 -10 -5 -4 -4 -3 -7 0 1 -1 3 1 -1 5 -1 -1 -3 -2 1 -1 3 1 0 3 0 -4 -2 -1 -1 -1 -1 -1 -0 0 -0 -1 -1 -1 -3 1 -1 -1 -0 -3
-7 -6 -6 -3 -0 -4 -3 1 3 1 1 1 -0 2 -2 -1 -1 -0 -1 1 1 -0 3 -2 -3 -0 1 1 1 1 1 -1 -0 -1 -1 -2 -0 -1 -3 0 -1 -0 -2 -4
-4 -2 -1 -1 1 1 0 -1 -1 2 -2 1 -2 -0 -2 0 0 -0 -0 2 2 3 2 -3 -1 -1 1 -1 -1 0 -1 -1 -2 -1 2 -1 -1 -2 -1 -2 1 -2 -3 -0
-3 -3 1 -0 3 1 1 -1 -3 4 -3 -4 -1 -1 -2 1 -0 -0 1 5 0 -1 -2 -0 1 2 -1 -1 -2 -1 -0 1 1 2 0 1 1 1 -0 -1 0 -1 -1 -0
-3 -3 -1 1 -1 2 1 2 2 0 -1 -1 -1 -1 0 1 -1 2 -1 1 -2 -1 -1 -0 -0 0 -0 1 1 1 1 2 -1 0 2 -0 0 2 1 10 2 1 3 -1
-1 1 -1 -1 -1 -2 -0 -1 1 -1 1 -0 -1 -0 0 2 2 1 -1 -2 -2 -1 0 2 3 3 3 -0 -3 -4 -3 -1 0 -1 0 -1 1 0 1 -3 5 12 10 12
Height
1292 1302 1311 1321 1331 1341 1352 1356 1363 1377 1380 1399 1403 1403 1403 1409 1409 1414 1413 1409 1409 1415 1419 1422 1425 1428 1436 1447 1446 1449 1450 1451 1462 1461 1468 1468 1459 1460 1465 1472 1483 1476 1475 1455
1282 1293 1304 1314 1324 1327 1336 1346 1358 1368 1372 1380 1392 1396 1400 1405 1403 1407 1412 1411 1416 1423 1421 1434 1429 1435 1447 1448 1447 1445 1452 1450 1463 1467 1470 1470 1463 1465 1466 1480 1481 1471 1477 1454
1274 1285 1295 1305 1313 1323 1327 1337 1355 1362 1364 1372 1378 1389 1392 1399 1401 1403 1411 1412 1415 1424 1427 1426 1430 1435 1444 1449 1450 1452 1450 1444 1441 1440 1443 1444 1462 1463 1466 1470 1477 1467 1463 1457
1269 1279 1286 1297 1303 1316 1319 1322 1340 1343 1356 1367 1370 1378 1386 1392 1399 1404 1410 1416 1409 1413 1432 1437 1439 1439 1445 1452 1454 1455 1452 1448 1450 1455 1457 1457 1456 1461 1466 1469 1475 1476 1468 1463
1263 1273 1283 1290 1296 1306 1310 1318 1328 1341 1341 1363 1364 1367 1376 1380 1392 1394 1402 1399 1407 1410 1419 1417 1430 1435 1442 1445 1453 1453 1456 1463 1463 1469 1467 1467 1467 1465 1466 1468 1471 1467 1468 1468
1260 1269 1277 1284 1291 1303 1302 1313 1318 1331 1340 1353 1355 1356 1365 1372 1384 1390 1390 1397 1406 1415 1419 1421 1428 1435 1441 1443 1443 1451 1458 1463 1469 1469 1467 1473 1469 1460 1461 1464 1466 1467 1466 1466
1258 1266 1272 1279 1287 1294 1300 1307 1318 1329 1336 1345 1339 1354 1363 1369 1375 1383 1391 1397 1403 1415 1419 1426 1435 1441 1445 1449 1451 1450 1453 1456 1461 1465 1470 1471 1451 1458 1456 1461 1465 1467 1467 1467
1258 1265 1268 1276 1281 1289 1297 1303 1311 1322 1333 1343 1347 1352 1362 1370 1378 1384 1389 1397 1399 1406 1419 1429 1440 1447 1447 1451 1452 1453 1450 1454 1468 1467 1461 1447 1457 1458 1462 1464 1461 1463 1464 1465
1254 1261 1267 1276 1280 1289 1298 1303 1308 1315 1326 1341 1342 1349 1357 1364 1373 1386 1395 1400 1402 1408 1411 1415 1420 1428 1425 1439 1449 1455 1455 1450 1451 1465 1462 1449 1439 1453 1460 1463 1457 1463 1466 1466
1252 1259 1264 1271 1280 1287 1295 1303 1308 1316 1328 1338 1340 1349 1353 1362 1368 1380 1392 1399 1410 1410 1406 1410 1415 1420 1418 1430 1437 1452 1454 1459 1454 1455 1454 1443 1444 1455 1458 1460 1453 1460 1463 1463
1252 1255 1262 1272 1278 1285 1293 1301 1308 1314 1328 1342 1347 1349 1347 1357 1361 1370 1390 1401 1407 1406 1407 1410 1414 1415 1422 1423 1426 1439 1445 1449 1452 1451 1455 1451 1446 1453 1453 1450 1454 1457 1459 1459
1254 1259 1264 1273 1278 1285 1295 1303 1312 1315 1326 1343 1347 1349 1354 1358 1363 1367 1387 1386 1391 1396 1400 1405 1413 1419 1424 1420 1429 1436 1436 1431 1434 1437 1433 1438 1442 1443 1449 1451 1452 1454 1456 1456
1257 1261 1266 1275 1283 1289 1294 1300 1308 1316 1332 1348 1355 1357 1359 1361 1368 1373 1381 1389 1389 1389 1393 1406 1413 1416 1419 1423 1422 1427 1431 1432 1433 1435 1437 1440 1442 1444 1446 1448 1451 1452 1452 1451
1266 1271 1277 1282 1284 1292 1299 1300 1311 1322 1335 1350 1364 1362 1364 1368 1371 1375 1378 1382 1387 1391 1399 1406 1410 1412 1420 1418 1419 1419 1424 1430 1428 1430 1434 1439 1441 1441 1443 1446 1448 1448 1447 1446
1279 1282 1284 1288 1293 1301 1305 1312 1321 1328 1329 1349 1366 1366 1369 1371 1375 1379 1382 1385 1388 1395 1402 1406 1410 1415 1421 1424 1423 1420 1423 1420 1422 1425 1432 1435 1436 1439 1442 1444 1445 1444 1443 1443
1290 1293 1298 1301 1304 1309 1313 1321 1330 1330 1335 1347 1370 1382 1382 1381 1382 1383 1386 1389 1392 1398 1404 1408 1412 1417 1420 1420 1415 1415 1418 1419 1421 1424 1429 1433 1436 1438 1440 1441 1441 1442 1440 1437
1299 1301 1304 1308 1311 1313 1314 1325 1335 1337 1342 1351 1369 1381 1385 1384 1386 1391 1393 1394 1397 1401 1406 1408 1410 1415 1420 1416 1412 1411 1415 1417 1420 1424 1427 1430 1432 1434 1437 1438 1439 1437 1435 1433
1305 1307 1309 1310 1311 1315 1322 1329 1333 1337 1342 1350 1365 1380 1386 1388 1391 1395 1397 1398 1400 1403 1406 1411 1410 1416 1415 1412 1405 1410 1413 1415 1418 1420 1423 1426 1429 1432 1434 1434 1434 1431 1431 1429
1311 1313 1315 1318 1319 1327 1333 1335 1339 1341 1345 1354 1365 1368 1380 1388 1391 1394 1398 1399 1400 1406 1406 1406 1409 1406 1406 1399 1402 1406 1409 1412 1414 1417 1420 1423 1426 1428 1430 1428 1426 1426 1426 1425
1316 1317 1318 1328 1333 1334 1335 1341 1341 1343 1349 1356 1365 1371 1377 1385 1387 1393 1395 1398 1398 1400 1402 1406 1406 1397 1395 1396 1400 1403 1406 1409 1412 1415 1418 1420 1422 1423 1423 1421 1420 1421 1420 1420
1318 1322 1329 1334 1334 1336 1339 1346 1350 1354 1358 1363 1370 1370 1373 1384 1383 1388 1394 1396 1398 1398 1397 1401 1396 1390 1389 1392 1394 1399 1403 1406 1408 1411 1413 1414 1416 1416 1416 1416 1416 1415 1415 1414
1325 1328 1333 1336 1339 1342 1347 1357 1358 1355 1361 1369 1371 1377 1381 1386 1388 1391 1398 1396 1399 1394 1400 1400 1390 1384 1386 1389 1391 1393 1397 1401 1404 1407 1408 1409 1410 1410 1410 1410 1409 1409 1408 1407
1331 1333 1337 1341 1348 1348 1348 1356 1357 1358 1363 1370 1375 1379 1383 1387 1390 1392 1394 1393 1391 1394 1395 1386 1380 1382 1385 1387 1388 1391 1394 1397 1401 1402 1403 1404 1404 1404 1404 1403 1403 1403 1401 1401
1336 1340 1346 1348 1350 1352 1352 1350 1355 1364 1366 1369 1374 1379 1382 1386 1387 1389 1388 1389 1391 1390 1388 1382 1376 1379 1382 1385 1389 1391 1393 1395 1396 1397 1398 1398 1398 1397 1397 1397 1397 1396 1394 1394
1340 1343 1348 1352 1356 1357 1359 1360 1362 1366 1368 1370 1376 1379 1381 1385 1386 1385 1387 1391 1385 1381 1377 1376 1378 1379 1382 1385 1387 1390 1391 1393 1393 1393 1393 1392 1391 1390 1389 1389 1389 1387 1386 1385
1346 1350 1353 1356 1356 1360 1362 1362 1364 1368 1369 1371 1373 1377 1380 1381 1379 1381 1380 1380 1377 1374 1377 1378 1379 1380 1382 1384 1385 1387 1388 1388 1388 1387 1386 1385 1384 1383 1381 1381 1380 1378 1377 1376
1351 1355 1356 1357 1358 1359 1362 1364 1366 1368 1369 1369 1371 1374 1374 1378 1376 1375 1374 1373 1371 1374 1376 1378 1379 1380 1381 1381 1382 1383 1384 1383 1381 1379 1378 1376 1375 1374 1373 1371 1371 1370 1369 1366